Home   Weather   Culver City   Past weeks
Flag for USA

Past Weather in Culver City, California, USA — Yesterday and Last 2 Weeks

Now
65 °F

Overcast.


Feels Like: 65 °F
Forecast: 70 / 62 °F
Wind: 6 mph from West

Location: Santa Monica Municipal Airport

Current Time: Jun 16, 2019 at 1:59:19 pm

Latest Report: Jun 16, 2019 at 12:51 pm


Visibility: 10 mi

Pressure: 29.90 "Hg

Humidity: 81%

Dew Point: 59 °F

Location of Culver CityLocation

Past Weather in Culver City — Graph

°F

Culver City Temperature Yesterday

Maximum temperature yesterday: 70 °F (at 1:51 pm)
Minimum temperature yesterday: 62 °F (at 10:51 pm)
Average temperature yesterday: 65 °F

High & Low Weather Summary for the Past Weeks

 TemperatureHumidityPressure
High78 °F (Jun 10, 11:51 am)97% (Jun 6, 5:14 am)30.01 "Hg (Jun 6, 5:14 am)
Low60 °F (Jun 1, 8:51 pm)54% (Jun 10, 1:51 pm)29.85 "Hg (Jun 1, 5:51 pm)
Average64 °F82%29.93 "Hg
* Reported Jun 1 11:51 am — Jun 16 11:51 am, Culver City. Weather by CustomWeather, © 2019

Note: Actual official high and low records may vary slightly from our data, if they occured in-between our weather recording intervals... More about our weather records

Advertising

Culver City Weather History for the Previous 24 Hours

Scroll right to see more
 ConditionsComfort  
Time TempWeatherWind HumidityBarometerVisibility
11:51 am
Sun, Jun 16
65 °FOvercast.7 mph81%29.91 "Hg10 mi
10:51 am64 °FLow clouds.6 mph87%29.90 "Hg9 mi
8:51 am63 °FFog.7 mph90%29.90 "Hg5 mi
7:51 am63 °FOvercast.3 mph87%29.89 "Hg7 mi
6:51 am63 °FOvercast.3 mph84%29.88 "Hg8 mi
5:51 am63 °FOvercast.3 mph84%29.88 "Hg10 mi
4:51 am63 °FOvercast.No wind84%29.87 "Hg10 mi
3:51 am63 °FOvercast.3 mph84%29.87 "Hg10 mi
2:51 am63 °FOvercast.No wind81%29.88 "Hg10 mi
1:51 am62 °FOvercast.No wind80%29.89 "Hg10 mi
12:51 am62 °FOvercast.No wind83%29.91 "Hg10 mi
12:33 am63 °FOvercast.No wind81%29.92 "Hg10 mi
11:51 pm
Sat, Jun 15
62 °FPassing clouds.No wind86%29.92 "Hg10 mi
10:51 pm62 °FClear.5 mph83%29.93 "Hg10 mi
9:51 pm63 °FClear.5 mph84%29.93 "Hg10 mi
9:17 pm63 °FPassing clouds.6 mph84%29.92 "Hg10 mi
9:06 pm64 °FPassing clouds.5 mph81%29.92 "Hg10 mi
7:51 pm64 °FSunny.8 mph81%29.90 "Hg10 mi
6:51 pm66 °FSunny.10 mph75%29.89 "Hg10 mi
5:51 pm68 °FSunny.10 mph70%29.88 "Hg10 mi
4:51 pm68 °FSunny.13 mph70%29.90 "Hg10 mi
3:51 pm69 °FSunny.12 mph70%29.91 "Hg10 mi
2:51 pm69 °FSunny.9 mph70%29.91 "Hg10 mi
1:51 pm70 °FPassing clouds.12 mph68%29.93 "Hg10 mi
Weather by CustomWeather, © 2019

See weather overview